Flag for Germany Weather past 2 weeks in Homberg (Efze), Hesse, Germany

Now
63 °F

Partly sunny.


Feels Like: 63 °F
Forecast: 44 / 62 °F
Wind: 5 mph from Southwest

Location: Fritzlar

Current Time: Aug 23, 2014 at 4:32:41 PM

Latest Report: Aug 23, 2014 at 4:00 PM


Visibility: 25 mi

Pressure: 29.90 "Hg

Humidity: 61%

Dew point: 49 °F

Location of Homberg (Efze)Location

Historic Weather in Homberg (Efze) — Graph

°F

Homberg (Efze) temperature yesterday

Maximum temperature yesterday: 65 °F (at 5:00 PM)
Minimum temperature yesterday: 49 °F (at 6:00 AM)
Average temperature yesterday: 57 °F

Past Weeks' High & Low Weather Summary

 TemperatureHumidityPressure
High79 °F (Aug 8, 5:00 PM)97% (Aug 16, 5:00 AM)30.06 "Hg (Aug 16, 5:00 AM)
Low43 °F (Aug 20, 7:00 AM)37% (Aug 18, 5:00 PM)29.64 "Hg (Aug 13, 4:00 PM)
Average60 °F75%29.88 "Hg
* Reported Aug 8 3:00 PM — Aug 23 3:00 PM, Homberg (Efze), Weather by CustomWeather, © 2014

Note: Actual official high and low records may vary slightly from our data, if they occured in-between our weather recording intervals... More about our weather records

Advertising

Homberg (Efze) weather history for previous 24 hours

 ConditionsComfort  
Time TempWeatherWind HumidityBarometerVisibility
3:00 PM
Aug 23
60 °FSprinkles. Overcast.2 mph61%29.91 "Hg9 mi
2:00 PM60 °FOvercast.3 mph65%29.91 "Hg16 mi
1:00 PM57 °FOvercast.2 mph74%29.93 "Hg16 mi
12:00 PM60 °FSprinkles. Overcast.N/A66%29.93 "Hg7 mi
11:00 AM59 °FOvercast.5 mph66%29.93 "Hg16 mi
10:00 AM58 °FPartly sunny.3 mph75%29.92 "Hg16 mi
9:00 AM56 °FPartly sunny.3 mph84%29.92 "Hg12 mi
8:00 AM53 °FOvercast.3 mph90%29.93 "Hg12 mi
7:00 AM51 °FOvercast.1 mph89%29.92 "Hg12 mi
6:00 AM53 °FOvercast.2 mph88%29.91 "Hg13 mi
5:00 AM53 °FOvercast.2 mph87%29.91 "Hg13 mi
4:00 AM54 °FOvercast.2 mph84%29.91 "Hg13 mi
3:00 AM54 °FPassing clouds.2 mph84%29.91 "Hg11 mi
2:00 AM54 °FOvercast.2 mph85%29.91 "Hg11 mi
1:00 AM54 °FOvercast.2 mph84%29.92 "Hg11 mi
12:00 AM57 °FPassing clouds.3 mph73%29.92 "Hg11 mi
11:00 PM
Aug 22
57 °FOvercast.5 mph74%29.92 "Hg9 mi
10:00 PM58 °FOvercast.2 mph63%29.89 "Hg11 mi
9:00 PM58 °FPassing clouds.3 mph60%29.88 "Hg13 mi
8:00 PM63 °FOvercast.5 mph50%29.87 "Hg16 mi
7:00 PM64 °FOvercast.6 mph51%29.87 "Hg19 mi
6:00 PM64 °FOvercast.7 mph50%29.88 "Hg19 mi
5:00 PM65 °FOvercast.8 mph45%29.88 "Hg19 mi
4:00 PM64 °FOvercast.6 mph46%29.90 "Hg19 mi
Weather by CustomWeather, © 2014

See weather overviewHow to use our weather pages